Location: *
(18.5200°S, 46.4500°E)
Time: 18:29:03
(UTC+00:00)

Daily predictions for brighter satellites

Satellite Brightness Start Highest point End
(mag) Time Altitude Azimuth Time Altitude Azimuth Time Altitude Azimuth
Cosmos 1459 Rocket 4.2 14:47:20 10° S 14:53:13 48° E 14:59:07 10° NNE
Meteor 2-10 4.2 14:49:40 10° N 14:55:19 72° E 15:00:51 10° SSE
CZ-4C R/B 3.2 14:50:07 10° NNW 14:58:32 87° WSW 15:06:25 10° SSE
Cosmos 2123 Rocket 4.1 14:55:39 10° N 15:01:50 63° E 15:08:06 10° SSE
Cosmos 1953 Rocket 4.3 15:00:47 10° SSW 15:05:15 60° W 15:09:37 10° N
Cosmos 2173 Rocket 4.0 15:01:35 10° S 15:07:58 70° E 15:14:12 10° NNE
USA 229 DEB 4.4 15:03:08 10° S 15:08:42 27° ESE 15:14:06 10° ENE
USA 229 4.4 15:03:16 10° S 15:08:48 27° ESE 15:14:10 10° ENE
OAO 2 Rocket 4.0 15:04:22 10° WNW 15:09:18 48° SSW 15:14:10 10° SE
Timation 2 Rocket 3.9 15:03:20 10° N 15:09:21 70° ENE 15:15:18 10° SSE
GPS 2-17 Rocket1 3.2 15:05:09 10° W 15:09:58 83° NNW 15:14:39 10° ENE
SAR-Lupe-2 3.9 15:11:22 10° N 15:14:56 70° WNW 15:18:33 10° SSW
AQUARIUS 4.5 15:11:11 10° S 15:15:42 71° WSW 15:20:09 10° NNW
Palapa 6 Rocket 4.0 15:10:52 10° W 15:16:15 58° S 15:21:59 14° ESE
Cosmos 1703 3.7 15:13:08 10° SSE 15:16:55 41° E 15:20:40 10° NNE
USA 234 3.3 15:10:29 10° SE 15:17:06 85° NE 15:23:39 10° NW
COBE Rocket 3.8 15:13:21 10° NNE 15:18:00 89° ESE 15:22:41 10° S
Cosmos-2242 4.3 15:17:35 10° NE 15:20:44 20° E 15:22:43 15° ESE
OAO 3 Rocket 4.0 15:17:29 10° NNW 15:21:51 36° NE 15:25:04 16° E
Cosmos 44 Rocket 3.4 15:17:23 10° SSW 15:22:32 80° ESE 15:27:41 10° NNE
SMAP 3.9 15:18:13 10° S 15:22:47 52° WSW 15:27:17 10° NNW
Cosmos 2360 Rocket 3.5 15:20:12 10° SSE 15:23:43 17° ESE 15:25:19 15° E
Cosmos 1624 Rocket 4.3 15:20:49 10° N 15:25:44 45° E 15:30:43 10° SSE
Abrixas rocket 3.2 15:23:21 10° N 15:25:59 27° NE 15:27:06 21° E
CZ-2C R/B 3.8 15:21:26 10° NNE 15:26:08 62° ESE 15:30:51 10° S
Okean-O 3.4 15:22:05 10° S 15:26:27 55° WSW 15:30:46 10° NNW
Meteor 1-11 4.3 15:21:45 10° S 15:27:19 54° E 15:32:53 10° NNE
Cosmos 2016 Rocket 3.9 15:21:27 10° S 15:27:36 67° E 15:33:46 10° NNE
Cosmos 1980 Rocket 4.2 15:23:33 10° SW 15:28:33 32° WNW 15:33:32 10° NNW
Atlas Centaur 2 3.5 15:22:53 10° SW 15:28:46 34° SSE 15:33:35 18° ESE
Sakura Rocket 4.2 15:27:13 10° SW 15:30:36 26° SSE 15:32:37 19° SE
Ariane Rocket 4.4 15:32:06 17° E 15:32:29 17° E 15:35:48 10° NE
NOAA 12 4.1 15:28:39 10° SSE 15:34:00 82° ENE 15:39:18 10° N
Cosmos 1371 Rocket 4.0 15:30:36 10° N 15:35:54 75° ENE 15:41:18 10° SSE
Cosmos 1725 Rocket 3.9 15:34:27 10° S 15:40:40 66° E 15:46:51 10° NNE
Cosmos 1447 Rocket 4.4 15:34:55 10° N 15:41:04 64° E 15:47:13 10° SSE
Cosmos 967 Rocket 4.5 15:37:29 10° NNW 15:43:56 85° ENE 15:50:02 12° SSE
Cosmos 2251 Rocket 3.4 15:38:47 10° S 15:44:08 72° ESE 15:49:23 10° NNE
Hubble Space Telescope 0.8 15:40:35 10° WNW 15:44:41 66° NNE 15:46:20 34° E
Yuri Rocket 3.8 15:41:27 10° SW 15:46:03 48° SSE 15:48:43 28° ESE
FengYun 1-2 T 4.2 15:43:46 10° SSE 15:49:20 62° ENE 15:54:47 10° N
YAOGAN 6 2.9 15:48:54 40° ESE 15:49:40 46° E 15:53:12 10° N
Aureole 1 Rocket 2.0 15:47:37 10° S 15:50:38 72° ESE 15:54:01 10° NNE
CZ-4 R/B 1.5 15:49:17 10° S 15:53:27 78° WSW 15:57:38 10° NNW
Cosmos 2322 Rocket 2.1 15:49:09 10° SSW 15:54:51 87° ESE 16:00:33 10° NNE
Cosmos 2233 Rocket 4.1 15:50:15 10° S 15:56:20 53° E 16:02:23 10° NNE
Meteor 2-1 Rocket 4.1 15:53:59 10° N 15:59:43 85° E 16:05:23 10° S
ASTRO E2 3.8 15:56:21 10° NNW 15:59:50 29° NNE 16:00:01 29° NE
Cosmos 1452 Rocket 4.4 15:56:33 10° NNE 16:00:15 29° ENE 16:00:15 29° ENE
SL-16 R/B 2.5 15:55:45 10° SSW 16:01:24 68° WNW 16:07:00 10° N
Cosmos 1356 4.0 16:02:41 10° N 16:05:14 46° NNE 16:05:14 46° NNE
GPS 2-15 Rocket1 3.0 16:02:35 10° W 16:07:19 76° S 16:08:03 61° ESE
YAOGAN 1 2.6 16:04:45 22° S 16:07:30 77° WSW 16:11:49 10° NNW
GPS 2-14 Rocket1 2.7 16:06:11 10° W 16:10:15 70° NNW 16:10:30 67° NNE
Cosmos 1300 4.1 16:10:54 10° NNW 16:14:27 37° W 16:17:22 14° SSW
Cosmos 1420 Rocket 4.1 16:10:05 10° N 16:15:10 54° ENE 16:15:10 54° ENE
Stardust Del rocket 3.4 16:11:48 10° WSW 16:16:14 65° W 16:16:14 65° W
Cosmos 1076 Rocket 3.5 16:13:08 10° S 16:17:31 80° W 16:21:51 10° N
Cosmos 2227 Rocket 3.6 16:14:09 10° NNE 16:16:47 23° NE 16:16:47 23° NE
NOSS 3-1 (C) 3.0 16:16:57 10° SSW 16:22:36 90° WNW 16:25:42 26° NNE
CZ-3C R/B 1.8 16:15:57 10° WNW 16:28:50 85° NNE 16:28:55 84° NE
Envisat 4.4 16:25:10 10° S 16:29:50 36° WSW 16:34:28 10° NW
Cosmos 2219 3.1 16:28:30 10° NNW 16:34:12 85° WSW 16:34:42 75° S
ARIANE DEB (SYLDA) 4.2 16:36:19 10° NW 16:38:31 19° N 16:38:31 19° N
Cosmos 2297 Rocket 3.3 16:35:42 10° N 16:38:44 32° NNE 16:38:44 32° NNE
Cosmos 2360 Rocket 3.3 17:02:25 10° SW 17:12:46 11° N 17:12:57 10° N
Milstar 3 Cent rocket 4.1 16:47:00 10° WSW 17:11:05 87° SSE 17:13:44 66° ENE
Atlas Centaur 2 3.7 17:11:37 10° WSW 17:16:13 42° SW 17:16:13 42° SW
